Weather History for Jacksonville Craig, FL

Change the Weather History Date:

Saturday, November 5, 2011

  Actual Average Record
Temperature  
Mean Temperature 60 °F -  
Max Temperature 63 °F 73 °F 84 °F (2003)
Min Temperature 57 °F 55 °F 48 °F (2010)
Degree Days  
Heating Degree Days 5    
Growing Degree Days 10 (Base 50)    
Moisture  
Dew Point 50 °F    
Average Humidity 71    
Maximum Humidity 77    
Minimum Humidity 67    
Precipitation  
Precipitation 0.00 in - - ()
Sea Level Pressure  
Sea Level Pressure 30.12 in    
Wind  
Wind Speed 11 mph (NNE)    
Max Wind Speed 20 mph    
Max Gust Speed 29 mph    
Visibility 10 miles    
Events      
Averages and records for this station are not official NWS values.
T = Trace of Precipitation, MM = Missing Value Source: NWS Daily Summary

Daily Weather History Graph

Daily Weather History Graph

Search for Another Location

Airport:

Trip Planner

Search our weather history database for the weather conditions in past years. The results will help you decide how hot, cold, wet, or windy it might be!

Date:

Astronomy

Nov. 05, 2011 Rise Set
Actual Time 7:43 AM EDT 6:35 PM EDT
Civil Twilight 7:18 AM EDT 7:00 PM EDT
Nautical Twilight 6:49 AM EDT 7:29 PM EDT
Astronomical Twilight 6:21 AM EDT 7:57 PM EDT
Moon 3:36 PM EDT (11/5) 3:10 AM EDT (11/5)
Length of Visible Light 11h 42m
Length of Day
10h 52m
Waxing Gibbous, 78% of the Moon is Illuminated
Nov 5
Waxing Gibbous
Nov 10
Full
Nov 18
Last Quarter
Nov 25
New
Dec 2
First Quarter

Hourly Weather History & Observations

Time (EDT) Temp. Dew Point Humidity Pressure Visibility Wind Dir Wind Speed Gust Speed Precip Events Conditions
12:53 AM 57.0 °F 48.9 °F 74% 29.99 in 10.0 mi North 8.1 mph - N/A   Mostly Cloudy
1:53 AM 57.9 °F 50.0 °F 75% 29.99 in 10.0 mi NNW 8.1 mph - N/A   Overcast
2:38 AM 57.2 °F 50.0 °F 77% 30.00 in 10.0 mi NNW 9.2 mph - N/A   Overcast
2:53 AM 57.9 °F 50.0 °F 75% 30.01 in 10.0 mi NNW 9.2 mph - N/A   Overcast
3:53 AM 57.9 °F 48.9 °F 72% 30.00 in 10.0 mi North 9.2 mph - N/A   Overcast
4:53 AM 57.0 °F 48.9 °F 74% 30.01 in 10.0 mi NNW 8.1 mph - N/A   Overcast
5:53 AM 57.0 °F 48.9 °F 74% 30.03 in 10.0 mi North 9.2 mph - N/A   Overcast
6:53 AM 57.9 °F 50.0 °F 75% 30.05 in 10.0 mi North 11.5 mph - N/A   Overcast
8:53 AM 60.1 °F 48.9 °F 67% 30.09 in 10.0 mi NE 12.7 mph 19.6 mph N/A   Overcast
9:53 AM 59.0 °F 48.9 °F 69% 30.13 in 10.0 mi NNE 11.5 mph 21.9 mph N/A   Overcast
10:53 AM 59.0 °F 48.0 °F 67% 30.15 in 10.0 mi NNE 12.7 mph 20.7 mph N/A   Overcast
12:53 PM 60.1 °F 48.9 °F 67% 30.16 in 10.0 mi NNE 12.7 mph 19.6 mph N/A   Overcast
1:53 PM 59.0 °F 48.9 °F 69% 30.15 in 10.0 mi NNE 12.7 mph 21.9 mph N/A   Overcast
4:07 PM 59.0 °F 48.2 °F 67% 30.17 in 10.0 mi NNE 13.8 mph 25.3 mph N/A   Overcast
4:15 PM 57.2 °F 48.2 °F 72% 30.17 in 10.0 mi North 17.3 mph 24.2 mph N/A   Overcast
4:48 PM 59.0 °F 48.2 °F 67% 30.17 in 10.0 mi North 19.6 mph 28.8 mph N/A   Overcast
4:53 PM 59.0 °F 48.0 °F 67% 30.17 in 10.0 mi North 15.0 mph 28.8 mph N/A   Overcast
5:53 PM 59.0 °F 48.0 °F 67% 30.17 in 10.0 mi NNE 15.0 mph 24.2 mph N/A   Overcast
6:53 PM 59.0 °F 48.0 °F 67% 30.18 in 10.0 mi NNE 15.0 mph 23.0 mph N/A   Overcast
7:11 PM 59.0 °F 48.2 °F 67% 30.18 in 10.0 mi North 12.7 mph 19.6 mph N/A   Overcast
7:53 PM 61.0 °F 51.1 °F 70% 30.18 in 10.0 mi NNE 13.8 mph 24.2 mph N/A   Overcast
8:53 PM 62.1 °F 52.0 °F 70% 30.18 in 10.0 mi NNE 15.0 mph 23.0 mph N/A   Overcast
9:53 PM 62.1 °F 53.1 °F 72% 30.19 in 10.0 mi NE 17.3 mph 27.6 mph N/A   Overcast
10:53 PM 63.0 °F 54.0 °F 72% 30.19 in 10.0 mi NNE 12.7 mph 20.7 mph N/A   Overcast
11:53 PM 63.0 °F 55.0 °F 75% 30.19 in 10.0 mi NE 15.0 mph 23.0 mph N/A   Overcast